Wind_Speed
9 9 9 9 9 9 9 10 10 8 7 8 8 7 7 5 4 5 4 5 6 6 7 5 1 2 5 5 5 4 4 5 3 2 3 2 2 4 5 6 7 7 8 10 11 13 14 14 15 15 15 14 14 15 15 16 17 17 17 15 12 10 11 12 10 6 3 3 2 2 2 2 3 4
9 10 10 10 10 9 10 10 10 8 7 8 9 8 7 6 6 6 5 5 7 8 8 6 3 2 4 5 5 4 3 4 3 2 3 3 3 6 6 7 8 7 8 9 10 12 13 13 14 14 14 14 14 14 15 16 16 16 16 15 13 11 11 10 8 6 3 3 3 2 3 3 4 4
10 10 11 10 10 10 10 10 11 10 9 9 9 9 8 7 7 7 7 5 7 9 9 8 6 4 4 4 6 5 3 4 5 4 5 4 6 8 6 5 9 8 8 9 10 12 12 13 13 14 14 14 14 14 15 15 15 15 15 15 14 12 11 9 6 4 3 3 3 3 4 4 5 5
10 10 11 11 11 10 10 10 11 10 10 10 10 9 9 9 9 9 8 7 8 10 10 9 8 6 5 4 4 6 5 5 5 5 6 6 7 8 6 6 8 9 8 9 10 11 12 12 13 13 14 14 14 14 15 15 14 14 14 14 14 12 11 10 6 3 2 4 4 4 5 5 5 6
10 10 10 11 11 11 11 11 11 11 11 10 11 10 10 10 10 9 9 9 10 10 8 8 9 7 6 6 4 5 7 7 6 6 6 6 7 8 7 6 6 7 10 10 9 11 12 12 13 13 13 14 14 15 15 14 14 13 13 13 13 13 12 10 4 2 3 4 5 5 5 6 6 7
11 11 11 11 11 12 12 12 12 12 12 11 11 11 10 10 10 9 9 10 10 9 7 8 9 7 7 7 5 6 8 7 7 7 7 7 7 7 8 8 5 5 11 10 9 12 12 11 12 12 13 13 14 14 14 14 14 13 13 13 13 12 12 11 5 2 5 4 4 5 6 6 6 8
12 12 12 12 12 12 11 11 12 12 12 12 11 11 10 10 10 8 8 8 9 9 8 7 9 8 6 7 7 7 7 7 7 7 8 8 8 7 9 9 5 6 11 10 10 13 12 11 11 11 12 13 13 14 14 14 14 13 13 12 12 12 11 11 7 4 5 5 5 5 6 7 7 8
12 12 12 12 12 12 11 11 11 11 11 11 11 11 10 10 10 9 8 8 8 9 9 8 9 8 7 8 8 7 7 7 7 7 8 8 8 8 10 11 8 8 11 10 10 12 12 10 11 10 10 11 12 14 14 14 14 14 13 13 13 12 11 11 9 7 6 4 5 5 6 7 7 8
12 13 13 13 12 12 12 12 12 11 11 11 11 11 10 10 10 9 9 9 9 9 10 10 9 9 9 9 8 7 7 7 7 7 7 7 7 8 9 11 10 9 10 8 8 10 10 10 10 9 9 11 13 13 14 15 15 15 14 14 13 13 12 11 11 10 8 4 5 7 6 7 7 8
13 13 13 13 13 13 13 13 12 11 10 11 11 11 10 10 10 9 10 10 10 10 11 11 11 11 10 9 8 6 6 7 8 7 7 7 6 7 9 11 10 9 8 8 7 8 7 7 9 8 8 11 13 13 14 15 15 16 15 15 14 13 12 12 11 11 10 7 4 6 7 7 6 7
14 14 14 14 14 13 13 13 12 12 11 11 11 11 10 10 11 12 12 11 11 12 13 13 12 11 10 9 9 7 5 6 7 6 6 7 6 6 7 9 9 8 9 9 7 7 6 4 4 5 8 11 12 13 14 16 16 16 16 16 16 15 14 13 12 11 10 9 7 5 6 7 7 7
15 15 15 15 15 14 14 13 13 12 11 10 11 11 11 11 11 12 12 11 11 12 13 12 11 11 11 10 9 7 7 7 6 6 6 7 7 7 6 7 7 7 9 9 7 7 6 3 2 3 8 11 12 12 14 16 16 16 16 16 16 16 16 15 13 12 11 11 10 7 4 6 8 7
16 16 15 15 15 14 13 13 14 14 13 13 13 12 12 10 9 12 13 11 8 9 11 11 9 9 13 15 13 9 7 7 6 6 7 8 8 8 7 7 5 5 8 9 8 7 5 4 3 3 6 9 10 12 14 15 16 16 15 15 15 16 16 16 15 13 12 11 10 9 6 4 7 9
16 16 16 16 15 15 15 15 18 18 17 16 16 15 14 13 11 13 14 11 8 8 10 11 9 7 10 19 20 12 7 7 7 6 7 8 8 8 8 6 3 4 7 9 8 7 6 5 4 3 5 8 9 11 13 14 13 13 13 14 14 15 15 15 15 14 12 11 11 10 9 6 4 7
17 17 17 16 16 16 17 18 20 20 19 18 18 18 18 17 16 15 14 12 10 10 10 11 11 9 8 17 24 16 7 7 7 5 7 7 7 7 7 7 4 4 6 7 7 6 4 4 4 3 6 7 9 10 11 10 11 11 12 13 13 14 14 14 14 14 13 11 11 10 9 9 6 4
17 17 17 17 16 16 16 16 17 19 20 20 20 21 20 19 18 18 17 16 14 12 12 12 12 11 8 13 22 18 7 5 6 6 7 8 7 6 7 8 5 4 6 7 7 7 5 3 3 4 7 7 9 9 8 8 10 11 11 12 13 14 14 14 13 13 12 12 11 10 9 9 8 7
17 16 17 17 17 16 15 13 14 16 17 19 20 21 21 21 20 20 19 20 18 16 15 13 13 13 10 13 19 13 5 5 7 7 9 8 8 8 7 6 4 3 6 7 6 7 6 4 3 5 7 6 7 7 7 8 9 10 11 12 13 13 14 14 13 12 12 11 11 10 10 9 9 8
17 16 16 16 17 17 15 13 12 13 14 16 17 18 19 18 18 19 19 19 19 19 18 17 18 18 14 15 15 9 5 7 7 7 9 9 9 9 6 3 1 2 5 6 6 7 5 5 5 3 5 6 6 6 6 7 8 10 10 11 11 12 13 13 13 12 11 10 10 10 10 10 10 9
17 18 19 19 19 18 16 14 14 15 14 13 14 15 15 16 16 17 18 17 16 18 20 20 20 20 16 14 12 7 5 6 6 7 8 8 8 8 5 1 2 2 5 6 6 6 5 5 6 2 3 5 6 4 5 6 7 8 9 10 10 11 11 11 11 11 11 9 9 9 9 9 11 11
17 19 22 22 22 20 17 15 17 19 17 14 14 15 15 16 16 15 17 19 19 18 18 17 17 18 16 14 12 10 8 7 6 6 7 7 6 6 5 3 2 3 3 7 6 6 5 5 6 4 2 2 3 3 1 4 6 7 8 10 10 10 10 10 10 9 9 8 7 6 6 7 9 10
20 22 21 20 21 20 17 16 17 19 19 17 16 15 16 16 16 15 15 17 19 21 20 19 19 18 17 15 13 11 9 8 6 5 6 7 5 4 5 5 1 5 5 7 6 5 5 5 6 6 4 3 3 3 3 1 6 8 9 9 10 10 10 10 10 9 8 7 5 5 4 4 7 8
21 20 19 20 21 19 16 15 16 18 19 17 15 15 16 17 17 17 14 13 15 19 22 21 19 17 15 12 11 10 8 7 5 5 6 5 4 5 5 5 2 4 7 8 6 4 5 4 5 7 7 5 4 4 3 0 4 6 7 8 10 10 10 11 12 11 10 9 7 6 5 3 4 5
19 17 16 18 19 17 16 16 16 18 20 18 16 15 17 18 19 18 17 16 15 15 16 16 14 13 11 7 6 7 6 6 5 2 3 3 4 5 3 4 4 1 6 8 6 4 4 4 4 6 8 6 3 3 1 2 3 3 4 6 7 9 11 11 12 13 13 12 10 9 7 6 4 4
18 17 17 17 16 13 13 14 15 17 20 21 19 18 18 19 20 18 18 19 19 14 10 9 9 9 8 6 6 5 4 4 5 4 1 2 2 2 2 2 2 4 7 8 7 6 5 5 6 7 7 6 6 5 6 6 4 3 4 5 5 8 9 9 9 12 14 14 14 12 10 9 6 4
16 17 18 17 15 12 12 14 16 17 19 21 22 21 22 23 23 20 18 18 20 18 12 10 11 10 9 8 6 6 5 4 5 6 5 6 6 4 2 1 3 7 7 7 6 6 6 5 7 9 7 7 9 9 9 8 6 3 4 5 5 5 6 5 5 8 10 12 13 13 13 13 10 6
14 15 15 15 17 17 18 19 21 22 23 24 25 26 25 24 25 25 22 20 21 20 15 14 14 13 12 9 6 7 6 6 8 8 8 8 8 8 6 4 5 7 6 5 6 6 6 6 7 9 9 9 10 11 11 9 5 2 4 5 5 4 5 5 5 6 7 8 9 12 13 14 13 10
11 12 13 14 16 19 20 21 23 26 27 27 28 28 26 24 24 25 24 22 22 20 17 16 15 13 13 12 11 11 9 8 10 11 10 10 10 9 8 7 7 7 6 5 6 6 5 5 6 7 7 9 10 10 10 8 5 4 5 6 6 4 4 6 6 5 7 7 8 10 10 11 13 12
8 10 12 14 16 17 18 19 20 23 26 28 29 27 24 23 23 25 26 26 23 21 20 20 19 16 15 14 14 15 14 13 13 12 12 11 11 10 9 8 7 6 6 5 6 6 5 4 5 5 6 8 9 9 9 8 8 8 6 6 7 6 5 6 6 5 7 8 8 8 7 7 9 10
8 10 12 15 18 18 16 16 16 16 17 21 24 24 22 21 22 25 29 28 24 23 22 22 21 19 17 17 16 17 17 15 13 12 11 10 9 8 8 7 6 5 4 4 5 6 6 5 5 6 6 7 8 9 9 9 9 8 6 6 7 6 5 6 6 5 6 8 8 8 7 7 7 7
9 11 12 14 16 15 13 13 12 12 12 13 15 18 20 20 20 24 29 29 28 27 25 23 22 20 20 21 20 19 17 14 12 9 8 7 7 6 5 4 4 4 4 3 4 6 6 5 5 6 6 7 8 8 8 8 9 8 7 6 7 6 4 5 6 5 6 8 9 8 7 7 6 5
11 10 9 10 12 13 12 11 11 10 10 9 8 9 11 12 13 16 21 25 26 26 25 24 24 24 24 23 20 17 13 11 10 7 5 6 6 4 3 2 3 3 3 3 3 5 6 6 7 6 6 7 7 7 7 8 8 8 6 5 6 7 6 6 6 5 6 9 9 8 7 7 6 5
9 7 7 7 7 8 9 8 7 7 8 7 5 4 2 3 3 4 9 13 16 21 26 26 25 24 23 20 17 14 12 10 9 7 6 6 6 4 3 3 3 4 5 5 4 5 5 7 8 7 6 6 7 6 7 7 7 6 5 5 5 6 6 6 6 6 7 9 9 8 7 7 6 4
8 6 5 6 4 5 6 6 6 6 6 6 7 7 5 5 8 11 14 16 18 23 28 28 24 20 18 16 14 13 12 11 9 8 8 7 6 5 4 4 4 5 6 6 6 6 7 8 9 8 7 6 6 5 5 6 5 4 5 6 6 6 6 6 6 7 8 8 8 8 8 6 5 4
7 5 5 4 4 5 5 6 6 6 7 8 9 11 11 13 16 19 20 21 20 20 24 24 21 18 16 15 14 13 12 11 9 8 8 7 6 6 6 5 5 7 8 7 8 8 9 10 10 9 7 5 5 4 3 3 5 5 6 6 6 6 6 6 7 8 8 7 8 9 8 6 4 4
5 5 4 3 4 4 5 6 7 7 8 9 11 12 14 16 20 22 23 22 19 17 19 20 18 16 15 14 13 12 11 9 8 7 6 6 6 7 7 7 8 9 9 8 9 10 10 10 10 9 6 5 6 6 5 1 3 6 6 6 6 6 7 8 8 9 9 7 7 8 8 7 6 5
4 4 4 4 5 5 5 6 6 8 9 10 11 13 15 16 20 21 21 20 18 17 18 19 17 14 13 13 11 11 9 8 6 5 5 6 7 8 8 8 9 10 9 9 10 10 10 9 9 9 7 5 5 4 6 5 2 6 6 6 7 6 7 9 9 9 9 7 7 8 8 8 8 7
6 6 6 7 7 7 6 6 7 8 10 10 12 14 15 16 19 20 19 19 18 16 16 16 14 12 11 11 10 10 9 6 4 3 4 5 7 8 9 9 9 10 10 11 11 9 8 7 7 7 7 5 5 2 4 5 2 3 3 5 7 7 9 10 10 10 9 8 8 9 9 9 10 8
9 9 9 8 8 7 7 7 7 7 9 10 12 14 15 16 19 20 19 18 18 17 15 14 12 10 9 8 8 8 7 5 3 3 3 4 5 7 8 8 10 11 12 12 10 7 6 6 5 6 6 5 4 4 2 3 3 1 2 5 7 6 9 11 10 10 10 9 9 10 9 10 11 9
11 11 10 10 9 9 9 8 9 10 10 11 13 16 17 18 19 19 17 16 15 15 14 13 11 9 8 6 5 5 5 4 3 3 3 2 3 5 6 8 10 12 11 10 8 6 5 4 4 5 7 6 6 6 7 9 9 7 7 8 6 4 8 10 10 11 11 10 10 11 10 10 10 9
12 12 11 11 11 11 11 11 12 13 14 14 16 17 18 18 18 17 16 15 14 14 14 13 11 9 7 6 5 5 5 4 3 3 3 2 2 3 5 7 10 10 8 7 6 5 4 4 5 7 8 7 8 9 10 11 11 10 8 6 3 3 8 9 9 10 11 11 12 12 11 10 10 9
11 11 10 10 10 11 11 12 12 13 14 15 16 16 16 16 15 15 14 14 13 13 13 12 10 8 7 6 6 6 5 4 4 4 3 3 3 3 5 7 7 6 5 5 5 4 4 5 6 7 8 8 8 9 9 9 9 7 4 3 3 4 8 9 8 8 8 10 12 12 11 11 11 11
10 10 10 9 9 10 11 11 11 11 12 13 13 13 14 14 14 13 13 12 11 10 10 9 8 7 7 7 7 7 5 4 4 4 5 5 5 5 6 6 5 4 4 4 3 4 5 6 6 6 7 7 7 8 8 7 7 8 7 7 6 5 8 12 12 10 7 7 7 9 11 11 11 11
10 10 10 10 10 10 10 10 10 10 10 10 11 12 12 12 12 11 11 11 10 10 9 8 8 8 7 7 6 5 4 4 4 5 5 6 6 6 6 4 3 3 3 3 3 4 5 5 5 6 6 6 6 6 7 8 8 9 9 9 8 8 10 14 12 9 7 6 4 4 6 7 8 9
9 9 10 10 10 10 10 10 10 10 10 10 10 10 10 10 10 10 10 10 10 9 9 8 8 7 6 6 5 5 4 4 5 5 5 5 5 4 4 3 3 3 3 3 3 4 5 5 6 6 7 7 6 7 7 8 9 9 9 10 10 10 11 11 8 7 8 8 5 3 2 4 7 9
7 8 9 9 9 9 9 9 9 10 9 9 9 9 9 9 9 9 9 8 8 8 7 6 7 7 6 6 5 5 5 5 4 4 4 4 4 3 3 3 3 3 3 3 4 4 5 6 6 6 7 7 7 7 8 8 9 10 10 10 10 10 10 10 9 8 8 8 8 5 3 6 9 10
Wind_Direction
265 266 264 266 271 274 273 274 277 277 275 277 275 270 270 275 284 291 298 297 297 296 291 297 326 298 301 293 282 293 311 321 336 337 332 351 343 335 350 356 342 326 325 329 333 338 341 342 343 344 343 342 340 339 341 345 349 353 356 353 344 334 327 321 313 297 252 213 230 229 199 192 186 189
264 267 269 271 273 275 274 272 273 268 260 264 267 266 267 264 266 282 293 289 297 302 294 296 298 267 282 282 283 296 298 308 317 302 309 317 317 321 332 350 347 329 321 327 332 337 339 340 340 339 336 335 335 336 339 343 345 348 352 354 349 340 335 333 321 300 267 221 215 213 203 202 193 191
259 261 265 269 270 274 275 275 274 269 260 261 265 264 264 263 261 272 281 280 291 296 295 301 299 280 286 288 297 305 293 301 311 296 289 291 308 309 297 325 339 329 320 324 331 336 338 337 336 333 330 330 332 337 340 342 344 344 347 353 354 348 341 336 330 312 280 243 227 213 202 206 206 202
256 256 259 262 265 269 272 273 272 267 260 257 261 264 262 261 260 260 264 268 277 282 290 302 299 294 297 280 285 305 303 309 313 295 278 283 307 309 284 292 317 323 325 325 329 337 336 335 333 329 329 331 336 341 343 344 345 344 346 351 355 355 351 344 343 354 310 256 239 227 209 201 207 213
255 255 256 260 263 265 267 269 269 267 263 256 256 260 259 260 261 258 259 266 276 281 288 297 294 297 301 284 280 301 300 306 312 301 288 285 298 310 311 301 291 313 332 329 331 338 336 334 333 331 333 337 341 345 346 348 349 347 347 351 353 358 3 2 2 3 325 275 245 240 226 211 206 211
253 252 253 257 259 260 260 262 265 265 265 262 259 259 259 262 265 261 259 266 275 280 281 285 283 281 284 285 292 301 300 304 305 301 300 297 298 308 320 315 284 311 335 335 337 341 338 336 337 335 337 341 345 348 350 352 354 353 351 352 353 356 5 11 13 331 317 293 252 246 236 227 217 209
250 249 251 254 256 258 258 259 264 266 266 265 264 264 264 267 270 268 260 259 270 278 279 280 280 277 275 283 290 295 298 299 295 295 300 302 309 314 315 315 303 315 331 337 342 345 344 341 339 338 339 344 349 352 356 358 0 0 358 356 356 356 360 6 8 353 329 296 260 250 236 233 231 218
250 250 252 253 254 257 258 259 262 265 266 264 261 262 262 264 269 269 258 251 261 273 277 274 274 277 278 278 283 289 293 294 286 288 297 300 309 314 312 314 314 316 327 336 344 347 347 345 342 341 344 351 356 358 0 2 4 5 5 4 3 2 360 358 359 2 354 302 258 248 234 230 233 230
249 250 251 253 253 252 253 255 258 262 264 264 262 261 262 262 262 263 259 255 257 262 266 268 264 265 266 265 271 277 287 296 288 279 287 292 298 308 313 320 320 320 327 336 345 348 345 344 347 347 355 2 2 2 3 4 5 6 6 7 7 7 5 359 355 356 360 336 262 244 236 234 233 231
248 249 249 250 250 250 251 253 256 260 263 264 263 261 261 262 261 259 257 255 255 256 260 263 260 257 256 259 266 262 268 295 296 286 290 290 289 298 311 321 322 323 329 327 330 342 338 338 346 355 10 9 3 4 6 6 7 5 5 7 7 9 9 4 359 355 358 357 309 255 242 248 246 232
247 247 247 247 247 247 250 253 255 258 260 262 262 259 257 258 257 257 256 254 255 256 257 258 261 262 256 252 259 257 254 277 282 280 291 294 291 295 306 317 322 326 329 320 321 342 341 324 335 10 27 15 3 7 9 8 8 6 5 6 7 9 10 8 5 360 356 357 347 303 254 249 252 238
247 248 248 247 247 246 246 250 252 253 259 263 262 262 262 259 259 261 261 261 262 266 269 272 277 284 280 268 261 260 259 263 265 273 289 296 299 298 301 309 316 325 327 324 331 344 339 312 315 34 45 26 10 11 14 11 10 8 6 7 7 9 10 12 13 9 4 0 355 347 303 249 245 247
248 247 247 248 249 249 247 246 246 247 256 262 261 265 270 269 274 276 272 270 275 280 284 287 289 293 290 284 272 254 253 262 268 281 289 292 297 301 303 303 307 322 325 327 337 340 336 342 349 30 53 38 22 17 17 15 12 10 8 9 11 13 12 13 16 17 14 11 4 1 354 289 248 247
252 249 249 250 250 250 248 247 249 251 255 257 254 257 263 262 265 272 275 276 276 274 273 276 279 274 278 282 276 257 248 265 268 276 288 293 300 304 304 303 313 339 330 330 336 334 339 351 350 22 52 45 37 26 20 18 14 12 13 14 15 19 18 16 17 19 20 20 17 13 10 357 293 254
256 254 253 252 250 248 246 248 252 251 250 250 251 254 258 257 252 254 261 263 260 260 258 259 265 260 262 283 284 276 266 275 276 284 291 294 298 299 301 307 320 344 338 335 331 324 335 348 344 38 67 52 41 31 22 19 16 15 19 21 22 24 25 23 21 21 22 23 23 22 18 14 0 310
253 254 255 255 252 249 246 245 247 246 245 248 253 256 259 260 255 251 251 251 249 251 255 254 257 255 255 280 283 281 284 290 287 291 291 291 293 293 301 311 320 339 338 334 327 321 321 328 353 66 86 65 44 37 29 22 21 22 22 23 26 27 29 30 27 25 25 25 27 29 26 21 16 4
252 251 253 256 256 254 253 249 245 244 248 254 259 263 264 263 263 260 255 254 252 249 253 258 257 257 261 269 272 276 291 292 287 290 291 295 300 301 308 317 327 350 346 340 330 321 316 317 7 74 103 92 62 47 37 26 21 22 22 21 25 27 29 31 31 30 29 26 27 29 28 25 17 10
253 252 252 255 257 257 255 251 243 239 247 256 262 265 264 260 260 261 259 260 257 246 242 247 254 260 261 259 262 266 266 271 280 290 293 298 303 306 313 326 345 356 358 352 327 315 320 325 345 51 129 124 89 55 33 28 18 15 17 18 20 23 26 29 29 31 31 28 27 28 29 28 21 12
251 251 251 253 256 257 252 245 242 244 248 256 260 261 259 256 256 256 253 252 249 242 239 241 250 259 257 249 253 254 247 264 279 282 288 296 298 299 298 242 131 49 21 13 335 313 325 337 336 343 165 143 112 80 25 15 13 10 10 10 12 16 21 25 26 28 30 28 27 28 32 38 34 22
253 252 252 251 252 254 251 244 246 253 257 260 264 263 260 257 256 254 251 246 242 241 240 237 240 247 246 242 245 241 237 255 273 275 280 279 275 286 290 268 165 125 50 29 3 319 318 339 338 326 261 196 150 138 87 8 6 7 3 1 4 7 10 17 20 21 23 22 22 22 24 37 40 24
258 255 253 250 249 252 253 251 253 260 263 263 264 263 262 261 257 255 254 253 251 246 242 236 235 240 242 242 244 243 245 253 254 258 271 269 265 270 279 285 181 132 83 35 15 324 316 338 337 326 306 250 229 192 170 346 353 358 356 352 354 356 359 5 8 8 10 8 4 360 356 14 30 16
265 259 252 249 250 253 257 258 259 263 264 263 260 259 262 260 256 254 251 249 252 251 244 239 239 242 242 241 242 239 241 243 236 249 266 268 273 269 266 287 278 130 86 42 22 344 334 346 341 331 319 281 236 187 155 19 344 347 347 344 344 345 349 354 357 357 358 357 351 344 334 333 7 3
273 270 263 256 254 257 264 263 260 262 264 262 257 258 261 257 253 254 250 243 244 245 238 235 239 242 236 232 233 227 223 220 207 226 287 284 280 282 291 308 288 164 69 41 30 9 343 347 353 339 326 308 252 186 195 318 334 332 328 329 334 343 350 354 352 350 352 356 354 350 346 339 345 359
273 274 274 270 267 271 279 275 269 267 266 265 262 258 257 257 257 256 252 246 242 236 225 218 226 233 224 209 197 182 174 185 178 162 76 29 347 298 295 311 329 52 43 29 29 12 340 344 352 338 329 319 300 289 297 303 304 319 327 324 327 340 349 351 347 345 350 354 353 355 4 3 2 14
275 274 275 278 281 281 279 276 274 270 267 268 268 261 256 255 253 252 250 241 231 225 219 210 208 210 211 209 196 170 154 141 141 144 127 94 77 69 57 25 70 71 43 22 31 15 347 350 352 337 328 317 306 308 312 300 282 294 324 322 322 334 343 341 338 343 350 352 350 356 8 8 9 24
281 283 283 286 285 280 275 272 271 269 267 268 267 263 260 258 256 253 250 238 224 222 222 214 208 205 204 200 173 145 137 114 105 113 120 114 102 94 92 93 101 93 60 29 36 29 7 0 355 341 329 321 314 312 309 297 282 300 325 320 316 321 339 344 341 345 350 347 347 357 3 1 4 16
287 291 290 289 286 284 283 279 274 270 267 264 263 262 262 263 262 255 246 234 225 222 217 207 200 193 185 177 157 142 132 116 109 106 101 103 102 100 103 103 99 97 82 49 39 39 28 8 357 347 332 322 315 310 307 307 313 323 323 322 317 309 333 345 338 342 351 344 343 355 358 355 359 4
294 296 297 299 301 302 300 298 291 280 270 262 261 263 263 265 264 253 240 231 220 211 206 201 195 185 172 163 155 148 140 131 122 113 102 99 97 93 95 93 88 91 85 60 44 39 32 9 349 341 326 312 304 304 309 311 312 316 321 323 316 308 329 341 333 339 350 343 341 351 354 352 356 356
305 306 309 312 316 318 319 322 319 305 287 271 262 260 261 263 259 246 235 227 215 206 201 192 179 168 161 158 153 145 138 129 118 108 103 101 97 93 91 90 90 89 74 58 50 39 28 10 346 332 317 301 293 295 300 302 303 309 315 318 314 306 314 332 333 340 348 342 339 343 344 346 351 352
315 311 313 322 331 336 340 340 334 325 316 297 275 266 262 259 252 242 233 224 213 203 192 175 159 151 150 151 143 133 127 119 110 110 114 109 103 99 95 93 96 87 66 56 47 31 19 9 353 334 314 298 290 288 295 299 299 300 303 311 316 309 309 329 330 332 347 343 333 328 332 335 338 345
319 318 326 342 351 354 352 345 339 337 334 324 307 290 273 258 251 246 236 221 206 187 166 150 145 143 141 138 131 124 122 118 114 118 121 109 99 91 83 84 76 55 38 26 15 12 8 1 350 333 310 297 293 292 296 293 289 292 300 312 318 312 312 325 324 327 346 341 327 320 325 326 325 339
326 336 341 340 348 355 351 344 343 349 351 351 359 360 306 257 234 211 199 188 171 152 139 133 132 131 129 126 123 122 120 116 112 108 97 88 78 60 46 43 33 15 360 349 344 349 352 347 337 324 303 287 285 291 296 290 283 289 303 313 317 311 312 322 326 333 343 337 323 320 322 315 316 337
339 337 318 308 321 357 3 357 357 6 18 29 41 51 66 93 108 123 134 133 128 127 126 124 121 119 118 119 121 120 113 105 99 92 84 76 63 48 38 31 20 1 345 339 338 338 337 333 327 316 296 276 269 277 291 294 293 304 315 315 314 314 319 327 331 334 338 332 323 322 323 313 308 326
339 320 306 323 348 1 14 20 16 23 43 57 62 69 80 94 102 107 111 111 112 115 117 115 113 112 113 115 113 110 106 101 96 89 80 68 54 38 23 11 360 347 339 336 336 337 335 331 326 317 297 267 244 237 266 304 315 321 321 316 316 321 323 329 334 333 330 327 324 324 321 316 315 326
323 318 328 352 1 4 29 44 43 46 57 67 77 81 84 92 100 103 104 105 106 105 104 104 102 103 106 110 109 108 109 108 101 91 73 48 28 14 1 352 343 336 332 332 334 337 336 333 331 328 314 274 235 219 205 212 335 335 327 320 325 329 326 330 334 328 320 321 326 322 316 317 321 325
339 360 6 9 11 13 34 54 63 71 75 79 89 94 91 90 95 100 103 104 103 101 101 103 104 104 107 111 112 113 117 113 98 76 45 21 8 356 346 340 336 332 330 330 331 332 333 334 334 332 324 305 275 234 174 150 13 349 339 328 329 333 331 331 328 319 315 319 320 315 312 315 314 311
21 30 25 24 22 18 28 49 65 81 91 95 99 102 99 94 95 101 107 109 106 104 103 105 107 111 115 119 121 124 126 119 93 44 14 1 350 341 336 334 333 332 328 326 326 327 328 332 335 333 327 317 307 296 139 128 57 11 22 351 337 335 333 329 320 315 316 314 309 309 309 307 304 303
37 35 32 32 28 23 31 45 56 73 88 96 101 104 103 102 103 108 112 112 109 106 105 104 106 111 119 125 129 131 129 122 98 52 20 357 342 337 335 333 331 327 323 321 321 324 326 330 338 342 337 326 317 325 360 356 337 21 51 349 335 333 333 329 323 320 320 316 313 313 306 299 296 296
44 42 40 40 39 37 43 56 70 77 79 84 94 102 108 112 114 113 112 110 108 107 108 112 117 114 106 104 109 113 111 101 81 59 38 18 356 344 337 331 325 320 317 318 321 324 328 334 352 355 340 327 323 326 325 318 310 298 291 295 300 327 335 329 324 322 320 320 321 318 308 303 300 294
48 49 49 49 48 47 50 61 77 86 87 91 99 107 113 117 119 119 117 115 116 115 115 118 119 107 90 86 92 91 85 74 60 51 38 21 3 342 333 329 322 317 317 321 323 326 337 347 356 352 336 319 310 307 298 289 287 283 266 248 244 342 343 334 325 320 318 320 321 317 312 313 315 308
51 53 55 55 53 51 52 55 64 76 83 90 97 104 109 111 112 115 117 117 118 119 118 116 109 92 75 72 71 65 61 54 42 33 15 350 338 328 321 316 315 318 324 325 322 330 342 343 340 333 323 310 301 299 292 283 289 298 284 231 238 313 338 340 330 316 315 321 321 318 317 318 317 311
59 60 59 58 57 57 59 59 60 65 70 77 84 91 96 97 96 98 99 99 97 97 97 94 89 78 66 58 51 46 47 44 24 6 348 335 329 324 314 311 316 325 325 318 321 327 325 324 325 323 317 310 305 303 303 304 310 313 306 292 278 282 315 323 314 298 297 313 317 318 324 325 319 312
65 63 60 59 58 58 61 63 64 66 68 73 78 80 80 79 78 77 76 72 68 67 64 61 58 56 50 43 38 36 38 29 7 349 338 332 329 323 319 320 328 324 312 312 323 322 315 317 323 320 313 309 307 305 303 305 306 302 298 298 296 292 303 310 302 277 265 277 290 306 327 332 323 314
60 61 61 61 60 61 64 66 69 71 73 76 80 80 75 71 70 70 67 63 59 57 57 53 50 48 42 32 25 20 14 3 351 341 334 330 327 324 325 329 328 319 317 323 322 319 322 326 323 317 312 308 305 300 295 294 297 297 296 298 300 300 306 313 303 257 236 240 247 266 332 347 337 325
53 55 58 60 62 63 65 67 71 75 76 76 78 80 78 74 70 65 60 54 47 43 39 31 22 15 11 6 360 358 356 351 349 346 339 334 334 335 331 330 331 331 332 332 327 323 324 323 316 313 311 304 297 294 292 290 291 292 292 294 297 301 308 313 308 291 270 255 243 242 284 330 331 326
Height
860 860 859 859 859 858 858 858 857 857 857 856 856 855 854 855 856 856 854 851 846 846 846 845 847 848 847 847 846 845 844 843 843 843 842 842 841 840 839 838 837 836 834 833 832 830 828 827 825 823 821 820 818 817 815 814 813 811 810 808 807 805 804 803 803 803 803 803 803 803 803 803 804 804
860 859 859 859 859 858 858 857 856 856 856 856 855 854 854 854 854 854 855 853 848 847 846 845 846 846 846 846 844 844 843 843 842 842 842 841 840 839 838 837 837 835 834 833 831 830 828 826 825 823 821 819 818 817 815 814 812 811 810 808 806 805 804 803 802 802 802 803 803 803 803 803 803 804
859 858 858 858 858 858 857 856 856 855 855 855 854 854 853 854 854 853 853 853 850 847 846 845 845 845 845 845 844 843 843 842 842 842 841 841 840 838 837 836 836 835 834 832 831 829 828 826 824 822 821 819 818 816 815 814 812 811 809 808 806 805 803 802 802 801 802 802 802 803 803 803 803 803
858 857 857 857 857 857 856 855 855 854 854 854 853 853 853 853 853 852 852 851 849 848 847 845 844 843 844 844 844 843 842 841 841 841 841 840 839 837 836 835 834 834 833 832 830 829 827 825 824 822 821 819 818 817 815 814 812 811 809 808 806 805 803 802 801 801 801 801 801 802 802 802 802 802
857 856 856 856 856 856 855 854 854 853 853 852 852 852 852 851 851 851 851 850 848 847 847 846 844 843 843 843 843 843 842 841 841 840 840 839 838 837 836 834 833 832 832 831 830 828 826 825 823 822 821 819 818 817 815 814 812 811 809 808 806 804 803 802 801 801 800 800 800 800 801 802 802 802
855 855 855 855 854 854 854 853 852 852 851 851 850 850 850 850 850 849 849 849 847 846 846 845 844 843 843 843 842 842 842 841 840 840 839 838 837 836 835 834 832 831 831 831 829 828 826 824 823 822 821 820 818 817 816 814 813 811 810 808 806 805 803 802 801 800 800 799 799 800 801 801 802 802
853 853 853 853 852 852 851 851 851 850 849 849 849 848 848 848 848 848 848 848 847 846 844 844 843 842 842 842 842 841 841 840 840 839 838 837 836 835 834 834 832 830 831 830 829 828 826 825 823 822 821 819 818 817 816 815 813 812 810 809 807 805 803 802 801 800 799 799 799 799 800 800 800 801
850 850 850 850 850 850 850 850 849 849 848 848 848 847 847 848 847 847 847 847 846 845 844 843 842 842 841 841 841 840 840 839 838 838 837 836 835 835 834 832 830 830 830 829 828 827 826 825 824 822 821 820 819 817 816 815 814 812 811 809 808 806 804 802 801 800 800 799 799 799 799 799 799 799
848 848 848 848 848 848 848 848 848 847 847 847 846 846 846 846 846 846 845 845 845 844 843 842 841 841 840 840 839 839 838 838 837 836 836 835 834 834 833 831 830 829 828 828 828 827 826 825 824 823 822 820 819 818 816 815 814 813 811 810 808 807 805 803 801 800 800 799 799 798 798 798 798 798
846 846 846 846 846 846 846 846 846 845 845 845 845 845 845 844 844 844 844 844 843 843 842 840 839 839 838 838 837 837 837 837 836 835 835 834 834 833 832 831 830 828 828 828 827 827 826 825 823 823 822 821 820 818 817 816 815 813 812 810 809 807 805 804 802 800 800 799 798 798 797 797 797 797
843 843 843 843 843 844 844 844 844 844 844 844 843 843 843 843 843 842 841 841 841 840 839 838 837 836 835 835 835 835 835 835 835 834 833 833 832 832 831 830 829 828 828 826 825 826 825 825 824 823 822 821 820 818 817 816 815 814 813 811 810 808 806 804 802 801 800 799 798 798 797 797 797 797
840 840 840 840 840 841 841 842 842 842 842 841 841 841 841 842 841 840 839 839 839 839 838 837 837 837 835 834 833 832 833 833 833 832 832 832 831 831 830 829 829 828 827 826 825 824 824 824 823 823 822 821 820 818 817 816 815 815 813 812 811 809 807 805 803 802 801 799 798 797 797 797 797 796
838 838 838 837 837 838 839 839 839 840 840 840 840 840 840 841 841 841 839 837 837 837 838 839 838 837 836 835 833 831 830 831 831 831 831 831 830 830 829 828 828 827 827 826 825 825 824 823 823 823 822 822 820 819 817 816 815 815 814 813 812 810 808 806 804 803 801 800 799 798 797 797 797 797
836 836 835 835 835 836 836 837 837 837 838 838 839 839 839 840 840 841 841 838 836 836 837 837 837 836 835 835 834 830 827 828 829 829 830 830 829 829 828 827 827 827 827 826 825 825 824 824 823 823 823 823 821 819 817 816 816 815 814 814 812 811 810 808 806 804 803 801 800 799 798 797 797 796
834 834 833 833 833 833 833 834 834 834 835 835 836 836 837 838 838 838 839 838 836 835 835 835 836 835 834 835 834 829 824 825 827 828 829 829 828 828 827 826 826 826 826 825 824 824 824 824 823 823 824 824 822 820 819 818 817 816 815 814 813 812 811 809 807 806 804 803 801 800 799 798 797 796
832 832 831 831 830 830 830 830 830 830 831 832 833 834 834 834 835 835 835 834 833 833 834 834 834 833 833 835 836 830 825 825 827 827 828 828 827 828 827 826 826 826 825 825 824 823 823 823 823 823 824 824 823 822 821 820 819 817 816 814 813 812 811 810 809 807 806 805 803 802 800 799 798 797
829 829 829 829 828 827 828 828 828 828 829 830 830 830 831 831 831 831 831 831 831 832 833 833 833 832 832 833 834 830 826 826 827 827 827 826 826 826 826 826 826 825 825 824 823 823 823 822 822 823 824 824 823 823 822 821 820 819 817 816 814 813 812 810 809 808 807 806 805 803 802 801 800 798
827 827 828 828 827 827 826 826 826 827 827 828 827 827 827 827 828 828 827 827 828 829 831 832 831 831 830 830 830 828 826 826 826 826 826 826 825 825 824 825 825 825 824 824 823 822 822 821 821 822 823 823 822 823 823 822 821 819 818 817 815 814 813 811 810 809 808 807 806 805 804 803 802 800
825 825 826 826 826 826 825 824 824 825 826 826 825 825 825 825 825 825 824 824 825 826 827 828 828 828 827 827 827 825 825 825 825 826 826 825 825 824 823 823 824 824 824 824 824 822 821 821 821 821 822 822 822 822 822 821 821 820 819 818 816 815 814 812 811 810 809 808 807 806 805 804 803 802
824 824 824 824 823 824 823 822 822 823 823 823 823 823 822 822 822 822 822 822 824 824 824 824 825 825 824 824 823 823 823 824 824 824 825 825 824 823 822 821 822 824 824 824 824 823 821 821 821 820 820 821 821 821 821 820 820 819 818 817 817 815 814 813 812 811 810 809 807 807 806 805 804 804
822 822 821 821 821 821 820 819 819 820 821 821 821 821 821 820 820 820 820 821 822 823 822 822 822 822 822 821 821 821 821 822 823 823 824 824 823 823 822 821 821 823 824 824 824 823 821 821 822 821 820 820 820 821 821 820 819 818 818 817 817 815 814 813 812 811 810 809 808 807 806 806 805 804
820 819 817 818 819 818 817 817 817 818 818 818 819 819 819 819 818 818 818 819 819 819 820 820 820 820 820 820 819 820 820 821 822 822 823 823 823 822 822 821 820 822 824 824 823 822 822 822 822 822 820 819 818 820 821 820 819 818 818 817 816 815 815 813 812 811 810 809 808 807 806 806 805 805
815 815 814 814 815 814 814 815 815 815 815 816 816 816 816 816 815 815 816 816 817 817 818 819 819 819 819 819 819 818 819 819 821 822 822 822 822 822 822 822 821 821 823 825 824 823 823 822 823 823 821 819 817 818 820 820 820 820 819 818 817 815 815 814 812 811 810 809 808 807 806 805 804 804
813 813 813 813 812 811 812 812 812 813 813 813 814 814 814 813 813 813 813 813 815 817 816 817 818 819 819 820 819 818 819 819 820 821 822 822 822 822 823 823 823 823 825 826 825 825 824 823 823 823 823 821 819 818 818 819 820 820 820 819 818 816 815 814 813 812 811 809 808 807 806 805 804 804
813 812 813 812 810 809 809 809 809 810 810 810 811 811 810 810 810 810 810 810 811 813 813 813 815 816 818 819 819 819 820 820 819 819 821 821 822 823 823 824 825 826 827 827 826 826 825 824 824 824 823 823 821 819 818 818 818 819 819 819 818 817 816 815 814 813 812 810 809 808 806 805 804 804
812 811 812 811 809 807 806 806 806 806 807 807 806 806 806 807 807 807 808 807 808 809 810 811 812 813 815 817 818 819 821 822 820 820 821 821 822 823 823 824 825 827 827 827 826 826 826 825 825 825 824 824 822 820 819 817 816 817 818 818 817 817 816 815 814 814 813 812 811 809 807 806 805 804
811 811 810 809 807 805 804 803 802 802 802 802 801 801 802 804 804 805 805 805 805 807 808 809 810 812 813 815 816 817 820 821 821 821 822 822 822 822 823 824 825 826 827 827 826 826 826 826 826 826 825 825 823 821 819 816 815 816 817 817 817 816 816 815 814 814 813 813 812 810 809 807 806 805
810 810 808 807 805 803 802 800 799 798 797 797 797 798 799 801 801 802 802 802 802 804 805 805 807 810 812 813 814 815 817 819 821 821 822 823 823 823 824 824 825 826 827 827 826 826 826 826 826 826 825 825 823 821 819 817 816 816 816 816 816 816 815 815 814 814 813 813 812 811 810 809 808 806
809 808 806 804 803 801 799 798 796 795 793 793 793 794 796 797 797 797 797 797 798 799 801 802 805 807 809 812 813 814 815 818 821 822 823 823 823 824 825 825 826 826 826 827 826 826 825 825 825 825 824 824 823 821 820 818 817 816 816 816 816 815 815 815 814 813 813 813 812 811 810 809 808 808
807 806 805 803 801 800 798 797 796 794 792 791 790 791 792 793 794 794 793 793 793 794 797 800 802 804 807 809 812 814 817 819 821 822 824 824 824 825 826 826 826 826 826 826 826 825 825 825 824 823 823 823 822 821 819 818 817 816 816 816 815 814 814 814 814 813 813 812 812 811 810 809 808 808
806 805 803 802 801 800 798 797 796 794 793 791 790 790 790 790 791 791 791 791 792 792 794 797 800 803 806 809 812 815 818 820 822 823 824 824 825 826 826 826 825 826 826 826 826 825 824 824 823 822 822 822 821 820 819 818 817 816 815 815 815 814 814 813 813 813 812 812 812 811 810 809 808 807
805 804 802 801 801 800 799 798 797 796 795 793 791 790 790 790 790 791 791 792 794 794 795 798 802 805 807 810 813 816 819 821 823 825 825 825 825 826 825 825 826 826 826 826 826 825 824 824 823 821 821 821 820 819 819 817 816 815 815 815 815 814 814 813 813 812 812 812 811 810 809 809 808 807
805 803 803 802 801 800 800 799 798 797 796 794 793 792 791 791 792 792 793 795 798 799 798 800 804 808 810 813 816 818 820 822 824 825 825 826 826 826 826 825 826 827 827 826 826 825 824 823 822 821 820 819 819 818 818 817 815 815 815 815 815 814 813 813 813 812 812 811 810 809 809 808 807 807
805 804 803 802 801 801 800 800 799 799 797 796 796 795 795 794 794 795 797 799 803 805 803 803 806 809 812 815 818 819 820 823 824 826 827 827 827 827 826 826 827 828 827 826 825 825 824 822 821 820 818 818 817 817 817 817 816 815 815 815 814 814 814 813 813 812 812 811 810 809 808 807 807 806
805 804 804 803 802 802 801 801 801 800 799 799 798 798 799 799 798 799 801 803 807 809 807 806 809 812 814 817 819 820 822 824 825 826 827 827 827 827 826 827 827 828 828 827 825 825 823 822 820 819 817 816 815 815 815 816 816 816 816 815 815 815 814 814 813 813 812 811 810 809 808 807 806 806
806 805 805 804 804 803 803 802 802 801 801 801 801 801 802 803 802 803 804 807 810 812 811 811 813 816 817 819 820 821 823 824 825 826 826 826 827 827 827 827 828 828 827 826 825 824 823 822 820 819 817 815 812 811 813 815 816 816 816 816 815 815 815 814 814 813 812 811 810 809 808 807 807 806
808 807 806 807 806 806 806 805 804 804 803 803 803 803 805 806 806 806 808 809 812 814 814 815 816 818 819 820 821 821 822 822 823 824 825 826 827 827 827 827 827 827 827 825 824 824 823 822 821 819 818 815 812 809 811 813 815 815 816 817 816 816 816 815 814 813 812 811 810 809 808 808 807 806
810 810 810 810 810 809 809 808 808 807 806 806 805 806 807 808 808 809 811 812 814 815 816 817 818 820 821 821 821 821 821 821 821 822 823 825 826 827 827 827 827 826 825 824 823 823 822 822 821 820 819 817 814 812 812 814 814 815 815 816 817 817 816 816 815 813 812 811 810 809 809 808 807 806
813 813 812 812 812 812 811 811 810 810 809 809 808 808 808 809 810 812 813 815 815 816 817 818 820 821 822 823 823 822 822 822 822 822 823 824 825 826 827 827 826 825 824 823 822 822 822 822 822 822 821 820 818 817 817 817 816 815 815 815 816 816 816 816 816 814 813 812 811 809 808 807 805 804
815 815 815 815 814 814 814 813 812 811 811 811 811 811 811 812 812 814 815 816 816 817 818 820 821 822 823 823 823 823 823 823 824 824 824 824 825 826 826 826 825 824 823 822 822 822 822 822 822 822 822 821 820 819 818 817 815 814 813 813 813 814 815 816 816 815 814 812 811 809 807 806 804 803
817 817 817 817 817 817 816 816 815 814 814 814 814 814 814 814 815 815 816 817 818 818 819 820 821 822 823 824 823 823 824 824 825 825 825 825 825 825 825 825 824 823 822 822 822 822 822 823 822 822 821 820 819 818 816 814 812 811 812 812 812 812 813 814 815 815 814 813 812 810 807 806 805 803
819 819 819 820 819 819 819 819 819 818 818 818 817 817 818 818 818 818 819 820 820 821 821 822 822 823 823 824 824 824 825 826 826 826 826 826 825 824 824 823 823 822 822 821 822 822 822 822 822 821 820 819 818 817 815 814 813 812 813 813 812 811 812 811 811 811 812 812 811 810 809 808 806 803
821 821 821 821 821 821 821 821 821 821 821 821 821 821 821 821 821 822 822 823 823 823 824 824 824 824 824 825 826 826 826 827 827 826 826 826 825 824 824 823 822 822 821 821 821 821 821 821 821 820 819 818 817 817 816 816 815 814 813 813 812 812 811 810 809 808 809 810 810 810 810 809 808 805
824 823 823 823 823 823 823 823 823 823 823 823 823 824 824 824 824 824 824 825 825 825 825 825 825 825 826 826 827 827 827 827 826 826 826 825 825 824 824 823 822 822 821 821 820 820 820 820 820 820 819 818 817 817 816 816 816 815 814 813 812 812 811 810 809 808 807 807 808 808 808 808 808 807
826 826 825 825 825 825 825 825 825 825 825 825 825 826 826 826 826 826 826 826 827 827 827 827 827 827 827 827 827 827 826 826 826 826 825 825 824 824 823 823 822 822 821 821 820 820 819 819 819 819 819 818 818 817 817 817 816 815 814 812 811 811 810 810 810 808 807 806 806 806 806 806 806 805